SMOS

Last updated on Mon Nov 03 2025 00:02:34 GMT+0000 (Coordinated Universal Time)

1 36036U 09059A 25306.49294269 .00000443 00000+0 15521-3 0 9999 2 36036 98.4406 132.1318 0001351 85.8171 274.3171 14.39748374840838
UTC large
Height (km)
Speed (km/s)
/
Latitude / Longitude
Inclination (degrees)
Orbital Period (minutes)
Azimuth
Elevation
Range (km)
Doppler Factor

Next 0 passes for location: London (51.5072 / 0.1276)

Sorry there are no passes over London.